COSMOS 2491 DEB, 57550

Orbit data source: Space-Track

COSMOS 2491 DEB, 57550 is space debris in LEO originally from a launch on Wed, 25 Dec 2013 UTC launched from the Plesetsk Missile And Space Complex (PKMTR). Debris objects in space refer to the collection of defunct objects orbiting the Earth. Examples of debris include non-operational satellites, rocket bodies, and fragments generated from explosions, collisions, or faulty payload assembly.

Loading next visibility...
Identifier
57550, 2013-076AM
Orbit
LEO
Last TLE update
6 days ago
Origin
Manufacturer
TsNIIKhM
Mission
Spacecraft
Bus & Motor
Unknown
Mass
Unknown
Launch date (UTC)
2013-12-25 (12 years ago)
Launch vehicle
Unknown
Launch site
Plesetsk Missile And Space Complex (PKMTR)
Object type
Payload
Rocket body
Debris
Shape & HBR
Unknown
Radar Cross Section
Small (<0.1 m²)

Expand to show TLE details & history

TLE from 6 days ago
0 COSMOS 2491 DEB
1 57550U 13076AM  25178.18497977  .00005292  00000-0  23348-1 0  9993
2 57550  82.4550 332.8840 0210266 206.1359 152.9005 12.73031447 98886
Epoch: 2025-06-27T04:26Z
TLE epoch observation values (Epoch: 2025-06-27T04:26:22.252Z)
Latitude
-0.00001°
Longitude
-9.2502°
Altitude
1,518.099 km
Speed
7.039 km/s
True Right ascension
22h 11m 32s
True Declination
0° 00' 00"
Sunlit
Object was in daylight at epoch
Visualization orbit readout
Latitude
-59.46109°
Longitude
179.61683°
Altitude
1,281.521 km
Speed
7.266 km/s
Apparent Right ascension
08h 28m 48s
Apparent Declination
-54° 32' 04"
Sunlit
Object is in daylight
Visualization observer readout
Local Sidereal Time
18:41:26
Azimuth
221.85° SW
Elevation
-66.88°
Doppler factor
1
Orbital elements
Apogee altitude
1,529.777 km
Perigee altitude
1,204.072 km
Semi-major axis
7,745.061 km
Eccentricity
0.02103
Inclination
82.455°
RAAN
332.884°
Arg. of periapsis
206.1359°
True anomaly
Unknown
Mean anomaly
152.9005°
Eccentric anomaly
Unknown
Mean motion
3.18424 °/min
Orbital period
113.06 mins
BSTAR
0.023348
Loading maneuver chart data...
Loading SW <> Apogee altitude chart data...
Loading historical data...
Loading historical data...
Loading historical data...
Loading historical data...
Loading historical data...
Loading historical data...
Loading historical data...

COSMOS 2491 DEB Visibility forecast

Observer location: undefined°, undefined°

Span
Click to sort rows by Start time (UTC) header in descending order
Start Az.
Max El. time (UTC)
Max El. Az.
Max El.
End time (UTC)
End Az.
15 mins2025-07-03 09:32:40.921Z153.027° SSE2025-07-03 09:39:40.921Z93.342° ESE34.847°2025-07-03 09:47:40.921Z21.363° NNE
14 mins2025-07-03 11:27:40.921Z224.559° SW2025-07-03 11:33:40.921Z280.533° WNW33.504°2025-07-03 11:41:40.921Z353.326° N
5 mins2025-07-03 19:32:40.921Z41.24° NE2025-07-03 19:34:40.921Z57.414° ENE13.121°2025-07-03 19:37:40.921Z82.036° E
14 mins2025-07-03 21:23:40.921Z355.229° N2025-07-03 21:30:40.921Z99.212° ESE44.42°2025-07-03 21:37:40.921Z168.652° S
7 mins2025-07-03 23:20:40.921Z305.852° NW2025-07-03 23:23:40.921Z279.015° WNW16.575°2025-07-03 23:27:40.921Z245.388° WSW
|